GW5385 Weather Reports


time (UTC)temp
C
wind
direction
speed
KPH
gust
KPH
rain 1hr
cm
rain 24hr
cm
rain mn
cm
humidity
%
barometer
mb
20260905050035 15 305 0.0 6.4 0.00 0.00 0.00 55 1018.5
20260905044538 15 312 1.6 6.4 0.00 0.00 0.00 54 1018.5
20260905043035 16 348 4.8 9.7 0.00 0.00 0.00 50 1018.2
20260905041532 16 316 0.0 0.0 0.00 0.00 0.00 51 1018.9
20260905040026 16 313 0.0 0.0 0.00 0.00 0.00 50 1017.9
20260905034524 16 344 1.6 11.3 0.00 0.00 0.00 48 1017.3
20260905033028 16 337 6.4 14.5 0.00 0.00 0.00 49 1017.1
20260905031528 17 285 1.6 8.0 0.00 0.00 0.00 48 1017.4
20260905030029 17 322 4.8 16.1 0.00 0.00 0.00 46 1017.2
20260905024529 17 340 4.8 11.3 0.00 0.00 0.00 47 1017.0
20260905023015 17 316 3.2 9.7 0.00 0.00 0.00 46 1016.5
20260905021513 17 332 3.2 8.0 0.00 0.00 0.00 43 1016.6
20260905020012 18 307 0.0 11.3 0.00 0.00 0.00 42 1016.1
20260905014507 18 339 12.9 22.5 0.00 0.00 0.00 41 1015.2
20260905013008 18 330 11.3 27.4 0.00 0.00 0.00 41 1015.1
20260905011535 18 351 16.1 27.4 0.00 0.00 0.00 40 1015.2
20260905010035 18 6 14.5 22.5 0.00 0.00 0.00 40 1015.1
20260905004532 20 328 17.7 30.6 0.00 0.00 0.00 39 1015.0
20260905003032 20 335 11.3 29.0 0.00 0.00 0.00 38 1015.1
20260905001532 20 328 11.3 22.5 0.00 0.00 0.00 37 1015.3
20260905000031 21 336 12.9 24.1 0.00 0.00 0.00 36 1015.3
20260904234532 22 306 8.0 27.4 0.00 0.00 0.00 35 1015.5
20260904234530 22 305 8.0 27.4 0.00 0.00 0.00 35 1015.5
20260904233027 22 345 11.3 24.1 0.00 0.00 0.00 34 1015.5
20260904231529 21 327 9.7 24.1 0.00 0.00 0.00 35 1015.5
20260904230024 22 340 12.9 24.1 0.00 0.00 0.00 34 1015.3
20260904224524 21 335 12.9 24.1 0.00 0.00 0.00 35 1015.2
20260904223024 21 352 11.3 22.5 0.00 0.00 0.00 35 1015.1
20260904221517 22 314 8.0 19.3 0.00 0.00 0.00 34 1014.8
20260904220015 22 276 4.8 16.1 0.00 0.00 0.00 35 1014.6
20260904214514 22 298 6.4 20.9 0.00 0.00 0.00 34 1014.5
20260904213022 22 299 8.0 20.9 0.00 0.00 0.00 35 1014.3
20260904211508 22 271 9.7 24.1 0.00 0.00 0.00 35 1013.9
20260904210015 22 345 6.4 20.9 0.00 0.00 0.00 36 1013.7
20260904204504 22 297 6.4 17.7 0.00 0.00 0.00 36 1013.7
20260904203111 22 314 8.0 17.7 0.00 0.00 0.00 37 1013.5
20260904201558 22 334 4.8 14.5 0.00 0.00 0.00 38 1013.4
20260904200110 22 295 6.4 14.5 0.00 0.00 0.00 37 1013.2
20260904194557 21 322 6.4 16.1 0.00 0.00 0.00 38 1013.1
20260904193052 21 321 4.8 16.1 0.00 0.00 0.00 38 1012.7
20260904191546 21 336 6.4 17.7 0.00 0.00 0.00 37 1012.4
20260904190041 20 309 4.8 17.7 0.00 0.00 0.00 40 1012.3
20260904184539 20 243 3.2 6.4 0.00 0.00 0.00 40 1012.2
20260904183035 20 304 1.6 9.7 0.00 0.00 0.00 42 1012.0
20260904181532 20 233 3.2 8.0 0.00 0.00 0.00 42 1012.0
20260904180029 19 274 1.6 6.4 0.00 0.00 0.00 42 1012.0
20260904174528 19 221 1.6 8.0 0.00 0.00 0.00 42 1011.9
20260904173104 18 248 0.0 4.8 0.00 0.00 0.00 41 1011.6
20260904171602 18 288 0.0 3.2 0.00 0.00 0.00 44 1011.5
20260904170053 18 298 0.0 4.8 0.00 0.00 0.00 46 1011.3
20260904164554 18 304 0.0 4.8 0.00 0.00 0.00 47 1011.3
20260904163051 17 262 0.0 6.4 0.00 0.00 0.00 45 1011.4
20260904161552 17 281 3.2 9.7 0.00 0.00 0.00 44 1011.2
20260904160049 18 229 3.2 8.0 0.00 0.00 0.00 42 1011.1
20260904154548 18 214 3.2 12.9 0.00 0.00 0.00 41 1011.0
20260904153055 18 243 1.6 8.0 0.00 0.00 0.00 41 1010.4
20260904151544 18 106 6.4 11.3 0.00 0.00 0.00 42 1009.9
20260904150041 16 56 4.8 9.7 0.00 0.00 0.00 47 1009.7
20260904144539 16 68 6.4 12.9 0.00 0.00 0.00 46 1009.8
20260904143039 17 78 9.7 14.5 0.00 0.00 0.00 46 1009.6
20260904141540 15 71 3.2 8.0 0.00 0.00 0.00 52 1009.9
20260904140129 14 336 0.0 4.8 0.00 0.00 0.00 53 1010.1
20260904134533 13 30 9.7 16.1 0.00 0.00 0.00 54 1009.5
20260904133025 13 53 4.8 9.7 0.00 0.00 0.00 56 1009.8
20260904131523 12 11 0.0 8.0 0.00 0.00 0.00 60 1010.0
20260904130021 11 37 3.2 11.3 0.00 0.00 0.00 60 1009.8
20260904124520 11 52 3.2 9.7 0.00 0.00 0.00 62 1009.6
20260904123019 11 47 6.4 9.7 0.00 0.00 0.00 61 1009.5
20260904121521 11 4 4.8 9.7 0.00 0.00 0.00 59 1009.4
20260904120015 11 46 6.4 11.3 0.00 0.00 0.00 58 1009.6
20260904114514 12 44 6.4 12.9 0.00 0.00 0.00 57 1009.7
20260904113013 12 48 11.3 16.1 0.00 0.00 0.00 55 1009.6
20260904111512 12 50 9.7 16.1 0.00 0.00 0.00 54 1009.6
20260904110007 13 47 12.9 19.3 0.00 0.00 0.00 53 1009.7
20260904104507 12 60 6.4 12.9 0.00 0.00 0.00 55 1009.9
20260904103003 13 51 8.0 17.7 0.00 0.00 0.00 54 1010.2
20260904101601 12 46 8.0 12.9 0.00 0.00 0.00 57 1010.4
20260904100100 12 50 6.4 9.7 0.00 0.00 0.00 56 1010.5
20260904094530 12 44 9.7 19.3 0.00 0.00 0.00 55 1010.4
20260904093029 12 60 12.9 20.9 0.00 0.00 0.00 55 1010.6
20260904091525 12 56 11.3 19.3 0.00 0.00 0.00 55 1010.7
20260904090024 12 63 11.3 20.9 0.00 0.00 0.00 55 1010.6
20260904084522 12 56 6.4 12.9 0.00 0.00 0.00 57 1010.8
20260904083021 12 57 9.7 16.1 0.00 0.00 0.00 56 1011.0
20260904081512 11 20 6.4 9.7 0.00 0.00 0.00 61 1011.0
20260904080011 10 31 3.2 4.8 0.00 0.00 0.00 68 1011.3
20260904074517 9 308 0.0 0.0 0.00 0.00 0.00 68 1011.4
20260904073007 10 297 1.6 4.8 0.00 0.00 0.00 64 1011.6
20260904071558 11 69 0.0 0.0 0.00 0.00 0.00 63 1011.6
20260904070121 11 73 0.0 0.0 0.00 0.00 0.00 61 1011.8
20260904064556 12 295 0.0 1.6 0.00 0.00 0.00 63 1011.7
20260904063101 11 295 0.0 0.0 0.00 0.00 0.00 65 1011.7
20260904061525 11 295 0.0 1.6 0.00 0.00 0.00 63 1011.9
20260904060024 10 291 0.0 1.6 0.00 0.00 0.00 64 1012.0
20260904054517 11 295 0.0 3.2 0.00 0.00 0.00 63 1012.0
20260904053020 11 304 0.0 4.8 0.00 0.00 0.00 59 1012.3
20260904051515 12 300 0.0 1.6 0.00 0.00 0.00 60 1012.5